| time (UTC) | temp F | wind direction | speed MPH | gust MPH | rain 1hr in | rain 24hr in | rain mn in | humidity % | barometer mb |
| 20260504232113 | 66 | 249 | 7.0 | 14.0 | 0.00 | 0.00 | 0.00 | ||
| 20260504221407 | 65 | 253 | 3.0 | 12.0 | 0.00 | 0.00 | 0.00 | ||
| 20260504220044 | 65 | 314 | 4.0 | 8.0 | 0.00 | 0.00 | 0.00 | ||
| 20260504213358 | 65 | 291 | 3.0 | 16.0 | 0.00 | 0.00 | 0.00 | ||
| 20260504212035 | 66 | 291 | 5.0 | 11.0 | 0.00 | 0.00 | 0.00 | ||
| 20260504201340 | 61 | 318 | 4.0 | 7.0 | 0.00 | 0.00 | 0.00 | ||
| 20260504193329 | 63 | 308 | 6.0 | 14.0 | 0.00 | 0.00 | 0.00 | ||
| 20260504185315 | 62 | 323 | 5.0 | 13.0 | 0.00 | 0.00 | 0.00 | ||
| 20260504183953 | 62 | 316 | 4.0 | 11.0 | 0.00 | 0.00 | 0.00 | ||
| 20260504182630 | 61 | 330 | 3.0 | 8.0 | 0.00 | 0.00 | 0.00 | ||
| 20260504175945 | 57 | 304 | 3.0 | 9.0 | 0.00 | 0.00 | 0.00 | ||
| 20260504174710 | 61 | 259 | 2.0 | 7.0 | 0.00 | 0.00 | 0.00 | ||
| 20260504174622 | 61 | 259 | 2.0 | 7.0 | 0.00 | 0.00 | 0.00 | ||
| 20260504173259 | 61 | 345 | 4.0 | 8.0 | 0.00 | 0.00 | 0.00 | ||
| 20260504170609 | 63 | 284 | 0.0 | 7.0 | 0.00 | 0.00 | 0.00 | ||
| 20260504150541 | 53 | 215 | 0.0 | 0.0 | 0.00 | 0.00 | 0.00 | ||
| 20260504042919 | 41 | 278 | 0.0 | 0.0 | 0.00 | 0.00 | 0.00 | ||
| 20260504041557 | 41 | 278 | 0.0 | 0.0 | 0.00 | 0.00 | 0.00 | ||
| 20260504033548 | 44 | 278 | 0.0 | 0.0 | 0.00 | 0.00 | 0.00 | ||
| 20260504032225 | 44 | 278 | 0.0 | 0.0 | 0.00 | 0.00 | 0.00 | ||
| 20260504024214 | 47 | 278 | 0.0 | 0.0 | 0.00 | 0.00 | 0.00 | ||
| 20260504014844 | 57 | 300 | 0.0 | 3.0 | 0.00 | 0.00 | 0.00 | ||
| 20260504012158 | 57 | 252 | 1.0 | 8.0 | 0.00 | 0.00 | 0.00 | ||
| 20260504010835 | 59 | 166 | 3.0 | 5.0 | 0.00 | 0.00 | 0.00 | ||
| 20260504004146 | 60 | 271 | 2.0 | 9.0 | 0.00 | 0.00 | 0.00 | ||
| 20260504002823 | 60 | 250 | 3.0 | 11.0 | 0.00 | 0.00 | 0.00 | ||
| 20260504000138 | 60 | 276 | 6.0 | 13.0 | 0.00 | 0.00 | 0.00 |